| time (UTC) | temp F | wind direction | speed knots | gust knots | rain 1hr in | rain 24hr in | rain mn in | humidity % | barometer mb |
| 20260507001504 | 61 | 58 | 6.1 | 8.7 | 0.00 | 0.00 | 0.00 | 55 | 828.0 |
| 20260507001005 | 61 | 48 | 6.1 | 7.8 | 0.00 | 0.00 | 0.00 | 55 | 828.0 |
| 20260507000505 | 61 | 58 | 6.1 | 7.0 | 0.00 | 0.00 | 0.00 | 55 | 828.0 |
| 20260506235505 | 62 | 44 | 7.0 | 8.7 | 0.00 | 0.00 | 0.00 | 53 | 828.0 |
| 20260506234504 | 61 | 46 | 7.0 | 7.8 | 0.00 | 0.00 | 0.00 | 54 | 828.0 |
| 20260506234005 | 61 | 61 | 5.2 | 7.8 | 0.00 | 0.00 | 0.00 | 54 | 828.0 |
| 20260506233506 | 61 | 43 | 7.0 | 9.6 | 0.00 | 0.00 | 0.00 | 54 | 828.0 |
| 20260506233006 | 61 | 48 | 7.0 | 8.7 | 0.00 | 0.00 | 0.00 | 56 | 828.0 |
| 20260506232504 | 60 | 23 | 3.5 | 6.1 | 0.00 | 0.00 | 0.00 | 56 | 828.0 |
| 20260506232005 | 61 | 11 | 1.7 | 2.6 | 0.00 | 0.00 | 0.00 | 55 | 828.0 |
| 20260506231505 | 61 | 37 | 4.3 | 6.1 | 0.00 | 0.00 | 0.00 | 55 | 828.0 |
| 20260506231005 | 61 | 43 | 7.0 | 9.6 | 0.00 | 0.00 | 0.00 | 55 | 828.0 |
| 20260506230504 | 61 | 46 | 7.0 | 9.6 | 0.00 | 0.00 | 0.00 | 55 | 828.0 |
| 20260506230005 | 61 | 59 | 6.1 | 9.6 | 0.00 | 0.00 | 0.00 | 55 | 828.0 |
| 20260506225504 | 61 | 36 | 6.1 | 9.6 | 0.00 | 0.00 | 0.00 | 54 | 828.0 |
| 20260506225004 | 61 | 40 | 6.1 | 8.7 | 0.00 | 0.00 | 0.00 | 54 | 828.0 |
| 20260506224505 | 61 | 46 | 7.8 | 10.4 | 0.00 | 0.00 | 0.00 | 54 | 828.1 |
| 20260506223505 | 62 | 48 | 6.1 | 7.8 | 0.00 | 0.00 | 0.00 | 53 | 828.1 |
| 20260506223005 | 62 | 43 | 7.8 | 9.6 | 0.00 | 0.00 | 0.00 | 53 | 828.1 |
| 20260506222005 | 62 | 42 | 6.1 | 7.0 | 0.00 | 0.00 | 0.00 | 53 | 828.1 |
| 20260506221504 | 62 | 347 | 2.6 | 7.0 | 0.00 | 0.00 | 0.00 | 53 | 828.1 |
| 20260506221004 | 62 | 25 | 3.5 | 7.0 | 0.00 | 0.00 | 0.00 | 52 | 828.1 |
| 20260506220505 | 62 | 10 | 2.6 | 4.3 | 0.00 | 0.00 | 0.00 | 53 | 828.1 |
| 20260506220005 | 62 | 350 | 3.5 | 5.2 | 0.00 | 0.00 | 0.00 | 54 | 828.1 |
| 20260506215504 | 62 | 33 | 5.2 | 10.4 | 0.00 | 0.00 | 0.00 | 53 | 828.1 |
| 20260506214505 | 63 | 43 | 10.4 | 13.9 | 0.00 | 0.00 | 0.00 | 53 | 828.1 |
| 20260506213004 | 62 | 32 | 5.2 | 10.4 | 0.00 | 0.00 | 0.00 | 52 | 828.1 |
| 20260506212005 | 62 | 35 | 7.0 | 8.7 | 0.00 | 0.00 | 0.00 | 51 | 828.1 |
| 20260506211506 | 62 | 27 | 4.3 | 9.6 | 0.00 | 0.00 | 0.00 | 51 | 828.1 |
| 20260506211004 | 62 | 23 | 2.6 | 7.0 | 0.00 | 0.00 | 0.00 | 52 | 828.1 |
| 20260506205006 | 62 | 27 | 4.3 | 7.8 | 0.00 | 0.00 | 0.00 | 53 | 828.1 |
| 20260506204505 | 62 | 32 | 5.2 | 8.7 | 0.00 | 0.00 | 0.00 | 53 | 828.1 |
| 20260506203505 | 62 | 358 | 1.7 | 3.5 | 0.00 | 0.00 | 0.00 | 52 | 828.1 |
| 20260506203005 | 62 | 26 | 6.1 | 11.3 | 0.00 | 0.00 | 0.00 | 52 | 828.1 |
| 20260506202506 | 61 | 32 | 3.5 | 7.8 | 0.00 | 0.00 | 0.00 | 53 | 828.1 |
| 20260506202005 | 61 | 42 | 13.0 | 17.4 | 0.00 | 0.00 | 0.00 | 53 | 828.1 |
| 20260506201504 | 61 | 50 | 9.6 | 12.2 | 0.00 | 0.00 | 0.00 | 52 | 828.1 |
| 20260506201004 | 61 | 359 | 3.5 | 5.2 | 0.00 | 0.00 | 0.00 | 53 | 828.1 |
| 20260506200504 | 61 | 35 | 7.8 | 11.3 | 0.00 | 0.00 | 0.00 | 52 | 828.0 |
| 20260506200005 | 61 | 37 | 7.0 | 9.6 | 0.00 | 0.00 | 0.00 | 52 | 828.0 |
| 20260506195505 | 61 | 37 | 6.1 | 9.6 | 0.00 | 0.00 | 0.00 | 53 | 828.1 |
| 20260506195005 | 61 | 31 | 5.2 | 9.6 | 0.00 | 0.00 | 0.00 | 53 | 828.1 |
| 20260506194504 | 60 | 44 | 7.0 | 9.6 | 0.00 | 0.00 | 0.00 | 54 | 828.1 |
| 20260506194004 | 60 | 33 | 7.0 | 11.3 | 0.00 | 0.00 | 0.00 | 55 | 828.0 |
| 20260506193505 | 60 | 18 | 6.1 | 10.4 | 0.00 | 0.00 | 0.00 | 54 | 827.9 |
| 20260506193005 | 60 | 42 | 7.8 | 12.2 | 0.00 | 0.00 | 0.00 | 53 | 828.0 |
| 20260506192505 | 60 | 36 | 4.3 | 7.8 | 0.00 | 0.00 | 0.00 | 56 | 828.0 |
| 20260506192005 | 60 | 352 | 3.5 | 8.7 | 0.00 | 0.00 | 0.00 | 55 | 828.0 |
| 20260506191505 | 60 | 1 | 1.7 | 5.2 | 0.00 | 0.00 | 0.00 | 56 | 828.0 |
| 20260506191005 | 59 | 351 | 4.3 | 7.8 | 0.00 | 0.00 | 0.00 | 56 | 828.0 |
| 20260506190006 | 59 | 25 | 4.3 | 9.6 | 0.00 | 0.00 | 0.00 | 57 | 828.0 |
| 20260506185505 | 58 | 39 | 4.3 | 7.0 | 0.00 | 0.00 | 0.00 | 58 | 827.9 |
| 20260506184505 | 58 | 57 | 9.6 | 10.4 | 0.00 | 0.00 | 0.00 | 58 | 827.8 |
| 20260506184005 | 58 | 53 | 7.8 | 11.3 | 0.00 | 0.00 | 0.00 | 56 | 827.9 |
| 20260506183005 | 57 | 82 | 7.0 | 11.3 | 0.00 | 0.00 | 0.00 | 59 | 827.9 |
| 20260506182505 | 57 | 94 | 7.8 | 10.4 | 0.00 | 0.00 | 0.00 | 58 | 827.9 |
| 20260506182005 | 56 | 64 | 6.1 | 8.7 | 0.00 | 0.00 | 0.00 | 60 | 827.8 |
| 20260506181505 | 56 | 48 | 9.6 | 12.2 | 0.00 | 0.00 | 0.00 | 60 | 827.7 |
| 20260506181004 | 56 | 40 | 9.6 | 12.2 | 0.00 | 0.00 | 0.00 | 60 | 827.7 |
| 20260506180505 | 56 | 41 | 6.1 | 7.8 | 0.00 | 0.00 | 0.00 | 61 | 827.7 |
| 20260506180006 | 55 | 53 | 7.8 | 9.6 | 0.00 | 0.00 | 0.00 | 61 | 827.7 |
| 20260506175505 | 55 | 45 | 7.8 | 9.6 | 0.00 | 0.00 | 0.00 | 62 | 827.7 |
| 20260506175005 | 55 | 59 | 7.8 | 10.4 | 0.00 | 0.00 | 0.00 | 63 | 827.7 |
| 20260506174505 | 55 | 68 | 6.1 | 8.7 | 0.00 | 0.00 | 0.00 | 62 | 827.7 |
| 20260506174005 | 55 | 71 | 6.1 | 9.6 | 0.00 | 0.00 | 0.00 | 63 | 827.7 |
| 20260506173504 | 55 | 68 | 8.7 | 12.2 | 0.00 | 0.00 | 0.00 | 63 | 827.7 |
| 20260506173005 | 54 | 67 | 7.0 | 9.6 | 0.00 | 0.00 | 0.00 | 63 | 827.7 |
| 20260506172505 | 54 | 53 | 7.0 | 13.0 | 0.00 | 0.00 | 0.00 | 63 | 827.6 |
| 20260506172005 | 54 | 47 | 9.6 | 14.8 | 0.00 | 0.00 | 0.00 | 63 | 827.6 |
| 20260506171505 | 54 | 39 | 8.7 | 11.3 | 0.00 | 0.00 | 0.00 | 63 | 827.6 |
| 20260506171005 | 54 | 59 | 7.8 | 10.4 | 0.00 | 0.00 | 0.00 | 64 | 827.6 |
| 20260506170504 | 54 | 45 | 12.2 | 14.8 | 0.00 | 0.00 | 0.00 | 63 | 827.6 |
| 20260506170004 | 54 | 43 | 8.7 | 11.3 | 0.00 | 0.00 | 0.00 | 64 | 827.6 |
| 20260506165504 | 54 | 38 | 5.2 | 10.4 | 0.00 | 0.00 | 0.00 | 63 | 827.6 |
| 20260506165005 | 53 | 39 | 8.7 | 12.2 | 0.00 | 0.00 | 0.00 | 65 | 827.6 |
| 20260506164505 | 53 | 37 | 6.1 | 9.6 | 0.00 | 0.00 | 0.00 | 64 | 827.6 |
| 20260506164004 | 53 | 44 | 10.4 | 13.0 | 0.00 | 0.00 | 0.00 | 64 | 827.6 |
| 20260506163505 | 54 | 38 | 7.0 | 8.7 | 0.00 | 0.00 | 0.00 | 65 | 827.6 |
| 20260506163004 | 54 | 45 | 7.8 | 12.2 | 0.00 | 0.00 | 0.00 | 64 | 827.6 |
| 20260506162504 | 53 | 45 | 7.0 | 10.4 | 0.00 | 0.00 | 0.00 | 64 | 827.6 |
| 20260506162005 | 53 | 47 | 6.1 | 9.6 | 0.00 | 0.00 | 0.00 | 65 | 827.6 |
| 20260506161004 | 53 | 48 | 8.7 | 11.3 | 0.00 | 0.00 | 0.00 | 65 | 827.6 |
| 20260506160505 | 53 | 51 | 8.7 | 12.2 | 0.00 | 0.00 | 0.00 | 64 | 827.6 |
| 20260506160005 | 53 | 44 | 7.8 | 12.2 | 0.00 | 0.00 | 0.00 | 66 | 827.6 |
| 20260506155504 | 52 | 41 | 10.4 | 13.9 | 0.00 | 0.00 | 0.00 | 65 | 827.5 |
| 20260506155005 | 52 | 50 | 13.0 | 17.4 | 0.00 | 0.00 | 0.00 | 67 | 827.5 |
| 20260506154006 | 52 | 65 | 8.7 | 11.3 | 0.00 | 0.00 | 0.00 | 67 | 827.5 |
| 20260506153505 | 51 | 58 | 10.4 | 13.9 | 0.00 | 0.00 | 0.00 | 68 | 827.5 |
| 20260506153004 | 51 | 44 | 9.6 | 11.3 | 0.00 | 0.00 | 0.00 | 68 | 827.4 |
| 20260506152505 | 51 | 43 | 11.3 | 14.8 | 0.00 | 0.00 | 0.00 | 70 | 827.4 |
| 20260506151504 | 51 | 42 | 8.7 | 10.4 | 0.00 | 0.00 | 0.00 | 71 | 827.4 |
| 20260506151006 | 51 | 44 | 11.3 | 13.9 | 0.00 | 0.00 | 0.00 | 71 | 827.4 |
| 20260506150005 | 50 | 35 | 8.7 | 11.3 | 0.00 | 0.00 | 0.00 | 72 | 827.4 |
| 20260506145504 | 50 | 34 | 7.8 | 11.3 | 0.00 | 0.00 | 0.00 | 72 | 827.4 |
| 20260506145004 | 50 | 46 | 9.6 | 14.8 | 0.00 | 0.00 | 0.00 | 73 | 827.4 |
| 20260506144505 | 50 | 42 | 4.3 | 7.0 | 0.00 | 0.00 | 0.00 | 74 | 827.4 |
| 20260506144007 | 49 | 39 | 8.7 | 11.3 | 0.00 | 0.00 | 0.00 | 74 | 827.3 |
| 20260506143505 | 49 | 46 | 13.0 | 18.2 | 0.00 | 0.00 | 0.00 | 74 | 827.3 |
| 20260506143005 | 49 | 33 | 13.9 | 17.4 | 0.00 | 0.00 | 0.00 | 74 | 827.3 |
| 20260506142505 | 49 | 18 | 9.6 | 14.8 | 0.00 | 0.00 | 0.00 | 75 | 827.3 |
| 20260506142005 | 49 | 35 | 9.6 | 13.9 | 0.00 | 0.00 | 0.00 | 75 | 827.3 |
| 20260506141505 | 49 | 38 | 8.7 | 15.6 | 0.00 | 0.00 | 0.00 | 75 | 827.3 |
| 20260506141006 | 49 | 25 | 5.2 | 7.8 | 0.00 | 0.00 | 0.00 | 76 | 827.3 |
| 20260506134505 | 48 | 3 | 3.5 | 6.1 | 0.00 | 0.00 | 0.00 | 76 | 827.3 |
| 20260506134004 | 48 | 15 | 5.2 | 8.7 | 0.00 | 0.00 | 0.00 | 76 | 827.2 |
| 20260506133505 | 48 | 1 | 4.3 | 7.0 | 0.00 | 0.00 | 0.00 | 76 | 827.2 |
| 20260506133004 | 48 | 15 | 5.2 | 8.7 | 0.00 | 0.00 | 0.00 | 76 | 827.2 |
| 20260506132505 | 48 | 16 | 6.1 | 13.0 | 0.00 | 0.00 | 0.00 | 75 | 827.2 |
| 20260506131505 | 48 | 18 | 4.3 | 5.2 | 0.00 | 0.00 | 0.00 | 75 | 827.2 |
| 20260506131005 | 48 | 27 | 3.5 | 7.8 | 0.00 | 0.00 | 0.00 | 75 | 827.2 |
| 20260506130005 | 48 | 0 | 3.5 | 6.1 | 0.00 | 0.00 | 0.00 | 75 | 827.2 |
| 20260506125505 | 48 | 35 | 6.1 | 11.3 | 0.00 | 0.00 | 0.00 | 74 | 827.2 |
| 20260506125004 | 48 | 1 | 4.3 | 6.1 | 0.00 | 0.00 | 0.00 | 74 | 827.2 |
| 20260506124504 | 48 | 36 | 7.0 | 9.6 | 0.00 | 0.00 | 0.00 | 74 | 827.2 |
| 20260506124006 | 48 | 24 | 6.1 | 8.7 | 0.00 | 0.00 | 0.00 | 74 | 827.2 |
| 20260506123504 | 48 | 14 | 3.5 | 6.1 | 0.00 | 0.00 | 0.00 | 74 | 827.2 |
| 20260506122505 | 48 | 25 | 7.8 | 11.3 | 0.00 | 0.00 | 0.00 | 74 | 827.2 |
| 20260506122005 | 48 | 6 | 5.2 | 7.0 | 0.00 | 0.00 | 0.00 | 74 | 827.2 |
| 20260506121505 | 48 | 17 | 5.2 | 7.8 | 0.00 | 0.00 | 0.00 | 74 | 827.2 |
| 20260506120505 | 48 | 19 | 3.5 | 5.2 | 0.00 | 0.00 | 0.00 | 74 | 827.2 |
| 20260506115505 | 48 | 25 | 4.3 | 7.0 | 0.00 | 0.00 | 0.00 | 75 | 827.2 |
| 20260506115005 | 48 | 19 | 4.3 | 7.8 | 0.00 | 0.00 | 0.00 | 75 | 827.2 |
| 20260506114504 | 48 | 25 | 4.3 | 5.2 | 0.00 | 0.00 | 0.00 | 75 | 827.2 |
| 20260506114005 | 48 | 23 | 5.2 | 8.7 | 0.00 | 0.00 | 0.00 | 75 | 827.2 |
| 20260506113504 | 48 | 32 | 4.3 | 6.1 | 0.00 | 0.00 | 0.00 | 75 | 827.2 |
| 20260506113005 | 48 | 30 | 5.2 | 8.7 | 0.00 | 0.00 | 0.00 | 75 | 827.2 |
| 20260506112505 | 48 | 32 | 6.1 | 9.6 | 0.00 | 0.00 | 0.00 | 74 | 827.2 |
| 20260506112005 | 48 | 11 | 3.5 | 6.1 | 0.00 | 0.00 | 0.00 | 75 | 827.2 |
| 20260506111506 | 48 | 26 | 4.3 | 7.0 | 0.00 | 0.00 | 0.00 | 74 | 827.2 |
| 20260506111006 | 48 | 13 | 4.3 | 8.7 | 0.00 | 0.00 | 0.00 | 74 | 827.2 |
| 20260506110504 | 48 | 0 | 3.5 | 5.2 | 0.00 | 0.00 | 0.00 | 74 | 827.2 |
| 20260506110005 | 48 | 348 | 4.3 | 6.1 | 0.00 | 0.00 | 0.00 | 75 | 827.2 |
| 20260506105504 | 48 | 5 | 3.5 | 5.2 | 0.00 | 0.00 | 0.00 | 74 | 827.2 |
| 20260506104505 | 48 | 25 | 4.3 | 6.1 | 0.00 | 0.00 | 0.00 | 75 | 827.2 |
| 20260506104005 | 48 | 28 | 5.2 | 7.0 | 0.00 | 0.00 | 0.00 | 74 | 827.2 |
| 20260506103505 | 48 | 16 | 4.3 | 5.2 | 0.00 | 0.00 | 0.00 | 74 | 827.2 |
| 20260506102005 | 48 | 15 | 4.3 | 6.1 | 0.00 | 0.00 | 0.00 | 74 | 827.2 |
| 20260506101505 | 48 | 351 | 1.7 | 2.6 | 0.00 | 0.00 | 0.00 | 74 | 827.2 |
| 20260506100504 | 48 | 11 | 4.3 | 6.1 | 0.00 | 0.00 | 0.00 | 74 | 827.2 |
| 20260506100005 | 48 | 350 | 2.6 | 3.5 | 0.00 | 0.00 | 0.00 | 74 | 827.2 |
| 20260506095505 | 48 | 359 | 2.6 | 4.3 | 0.00 | 0.00 | 0.00 | 74 | 827.2 |
| 20260506095004 | 49 | 7 | 1.7 | 3.5 | 0.00 | 0.00 | 0.00 | 74 | 827.2 |
| 20260506094505 | 49 | 353 | 2.6 | 3.5 | 0.00 | 0.00 | 0.00 | 73 | 827.2 |
| 20260506094005 | 49 | 1 | 2.6 | 4.3 | 0.00 | 0.00 | 0.00 | 73 | 827.2 |
| 20260506093504 | 49 | 358 | 2.6 | 5.2 | 0.00 | 0.00 | 0.00 | 73 | 827.2 |
| 20260506093005 | 49 | 354 | 2.6 | 3.5 | 0.00 | 0.00 | 0.00 | 72 | 827.2 |
| 20260506092505 | 49 | 352 | 2.6 | 4.3 | 0.00 | 0.00 | 0.00 | 72 | 827.2 |
| 20260506092005 | 49 | 343 | 2.6 | 3.5 | 0.00 | 0.00 | 0.00 | 72 | 827.2 |
| 20260506091505 | 49 | 9 | 3.5 | 5.2 | 0.00 | 0.00 | 0.00 | 72 | 827.3 |
| 20260506091005 | 49 | 338 | 3.5 | 4.3 | 0.00 | 0.00 | 0.00 | 72 | 827.2 |
| 20260506090005 | 49 | 344 | 1.7 | 2.6 | 0.00 | 0.00 | 0.00 | 72 | 827.3 |
| 20260506085504 | 49 | 351 | 2.6 | 3.5 | 0.00 | 0.00 | 0.00 | 72 | 827.3 |
| 20260506085004 | 49 | 339 | 2.6 | 4.3 | 0.00 | 0.00 | 0.00 | 72 | 827.3 |
| 20260506084504 | 49 | 353 | 2.6 | 3.5 | 0.00 | 0.00 | 0.00 | 71 | 827.3 |
| 20260506082004 | 49 | 20 | 2.6 | 5.2 | 0.00 | 0.00 | 0.00 | 68 | 827.3 |
| 20260506081505 | 49 | 356 | 3.5 | 4.3 | 0.00 | 0.00 | 0.00 | 68 | 827.3 |
| 20260506081005 | 49 | 25 | 5.2 | 10.4 | 0.00 | 0.00 | 0.00 | 68 | 827.3 |
| 20260506080505 | 49 | 32 | 7.0 | 8.7 | 0.00 | 0.00 | 0.00 | 67 | 827.3 |
| 20260506073505 | 50 | 29 | 7.0 | 8.7 | 0.00 | 0.00 | 0.00 | 65 | 827.3 |
| 20260506073005 | 49 | 42 | 9.6 | 12.2 | 0.00 | 0.00 | 0.00 | 65 | 827.3 |
| 20260506072505 | 49 | 34 | 7.8 | 11.3 | 0.00 | 0.00 | 0.00 | 65 | 827.3 |
| 20260506072004 | 49 | 25 | 8.7 | 13.0 | 0.00 | 0.00 | 0.00 | 66 | 827.3 |
| 20260506071505 | 49 | 36 | 6.1 | 7.8 | 0.00 | 0.00 | 0.00 | 67 | 827.3 |
| 20260506071007 | 49 | 34 | 10.4 | 15.6 | 0.00 | 0.00 | 0.00 | 67 | 827.3 |
| 20260506070505 | 49 | 38 | 6.1 | 7.8 | 0.00 | 0.00 | 0.00 | 68 | 827.3 |
| 20260506062505 | 49 | 23 | 4.3 | 7.8 | 0.00 | 0.00 | 0.00 | 71 | 827.3 |
| 20260506061504 | 49 | 21 | 7.8 | 11.3 | 0.00 | 0.00 | 0.00 | 72 | 827.3 |
| 20260506061004 | 49 | 42 | 7.0 | 10.4 | 0.00 | 0.00 | 0.00 | 73 | 827.3 |
| 20260506060504 | 49 | 36 | 7.0 | 10.4 | 0.00 | 0.00 | 0.00 | 73 | 827.3 |
| 20260506051005 | 49 | 34 | 7.8 | 10.4 | 0.00 | 0.00 | 0.00 | 76 | 827.3 |
| 20260506045005 | 49 | 35 | 7.0 | 9.6 | 0.00 | 0.00 | 0.00 | 79 | 827.3 |
| 20260506044505 | 49 | 29 | 7.8 | 12.2 | 0.00 | 0.00 | 0.00 | 79 | 827.3 |
| 20260506044006 | 49 | 6 | 3.5 | 7.0 | 0.00 | 0.00 | 0.00 | 79 | 827.3 |
| 20260506043505 | 49 | 24 | 6.1 | 13.0 | 0.00 | 0.00 | 0.00 | 80 | 827.3 |
| 20260506043005 | 49 | 39 | 6.1 | 9.6 | 0.00 | 0.00 | 0.00 | 80 | 827.3 |
| 20260506042504 | 49 | 6 | 4.3 | 7.8 | 0.00 | 0.00 | 0.00 | 80 | 827.3 |
| 20260506042005 | 49 | 356 | 4.3 | 5.2 | 0.00 | 0.00 | 0.00 | 81 | 827.3 |
| 20260506041505 | 49 | 15 | 4.3 | 7.8 | 0.00 | 0.00 | 0.00 | 81 | 827.3 |
| 20260506041005 | 49 | 32 | 5.2 | 7.8 | 0.00 | 0.00 | 0.00 | 81 | 827.3 |
| 20260506040005 | 49 | 33 | 5.2 | 7.8 | 0.00 | 0.00 | 0.00 | 81 | 827.3 |
| 20260506035507 | 49 | 7 | 3.5 | 7.0 | 0.00 | 0.00 | 0.00 | 81 | 827.3 |
| 20260506035004 | 49 | 10 | 3.5 | 7.0 | 0.00 | 0.00 | 0.00 | 81 | 827.3 |
| 20260506034504 | 49 | 1 | 1.7 | 4.3 | 0.00 | 0.00 | 0.00 | 81 | 827.3 |
| 20260506034005 | 49 | 1 | 3.5 | 6.1 | 0.00 | 0.00 | 0.00 | 81 | 827.3 |
| 20260506033505 | 49 | 16 | 3.5 | 6.1 | 0.00 | 0.00 | 0.00 | 81 | 827.3 |
| 20260506033005 | 49 | 21 | 3.5 | 7.8 | 0.00 | 0.00 | 0.00 | 80 | 827.3 |
| 20260506032505 | 49 | 37 | 5.2 | 7.8 | 0.00 | 0.00 | 0.00 | 81 | 827.3 |
| 20260506032005 | 49 | 29 | 4.3 | 7.0 | 0.00 | 0.00 | 0.00 | 81 | 827.3 |
| 20260506031504 | 49 | 34 | 6.1 | 8.7 | 0.00 | 0.00 | 0.00 | 81 | 827.3 |
| 20260506030005 | 49 | 348 | 4.3 | 7.8 | 0.00 | 0.00 | 0.00 | 81 | 827.3 |
| 20260506025505 | 49 | 353 | 3.5 | 4.3 | 0.00 | 0.00 | 0.00 | 80 | 827.3 |
| 20260506025005 | 49 | 344 | 3.5 | 7.0 | 0.00 | 0.00 | 0.00 | 80 | 827.3 |
| 20260506024505 | 50 | 26 | 6.1 | 10.4 | 0.00 | 0.00 | 0.00 | 80 | 827.3 |
| 20260506024005 | 50 | 28 | 6.1 | 9.6 | 0.00 | 0.00 | 0.00 | 80 | 827.3 |
| 20260506023505 | 50 | 354 | 3.5 | 5.2 | 0.00 | 0.00 | 0.00 | 79 | 827.3 |
| 20260506023005 | 50 | 358 | 2.6 | 6.1 | 0.00 | 0.00 | 0.00 | 78 | 827.3 |
| 20260506022504 | 50 | 32 | 7.0 | 11.3 | 0.00 | 0.00 | 0.00 | 78 | 827.3 |
| 20260506022005 | 50 | 26 | 6.1 | 9.6 | 0.00 | 0.00 | 0.00 | 78 | 827.3 |
| 20260506021506 | 50 | 354 | 5.2 | 7.8 | 0.00 | 0.00 | 0.00 | 78 | 827.3 |
| 20260506021004 | 50 | 21 | 3.5 | 6.1 | 0.00 | 0.00 | 0.00 | 78 | 827.3 |
| 20260506020505 | 50 | 17 | 3.5 | 6.1 | 0.00 | 0.00 | 0.00 | 78 | 827.3 |
| 20260506015504 | 51 | 12 | 3.5 | 6.1 | 0.00 | 0.00 | 0.00 | 77 | 827.4 |
| 20260506015005 | 51 | 15 | 4.3 | 7.0 | 0.00 | 0.00 | 0.00 | 77 | 827.4 |
| 20260506014505 | 51 | 6 | 2.6 | 6.1 | 0.00 | 0.00 | 0.00 | 76 | 827.4 |
| 20260506014004 | 51 | 10 | 2.6 | 3.5 | 0.00 | 0.00 | 0.00 | 76 | 827.4 |
| 20260506013505 | 51 | 347 | 1.7 | 4.3 | 0.00 | 0.00 | 0.00 | 76 | 827.4 |
| 20260506013005 | 51 | 359 | 1.7 | 2.6 | 0.00 | 0.00 | 0.00 | 75 | 827.4 |
| 20260506012505 | 51 | 354 | 2.6 | 6.1 | 0.00 | 0.00 | 0.00 | 75 | 827.4 |
| 20260506011506 | 51 | 3 | 3.5 | 4.3 | 0.00 | 0.00 | 0.00 | 74 | 827.4 |
| 20260506011004 | 51 | 338 | 1.7 | 2.6 | 0.00 | 0.00 | 0.00 | 74 | 827.4 |
| 20260506010504 | 51 | 348 | 3.5 | 7.0 | 0.00 | 0.00 | 0.00 | 74 | 827.4 |
| 20260506010005 | 52 | 356 | 2.6 | 6.1 | 0.00 | 0.00 | 0.00 | 74 | 827.4 |
| 20260506005504 | 52 | 4 | 3.5 | 5.2 | 0.00 | 0.00 | 0.00 | 75 | 827.4 |
| 20260506005005 | 52 | 345 | 1.7 | 4.3 | 0.00 | 0.00 | 0.00 | 75 | 827.4 |
| 20260506004506 | 52 | 349 | 1.7 | 3.5 | 0.00 | 0.00 | 0.00 | 75 | 827.4 |
| 20260506002504 | 52 | 19 | 4.3 | 7.0 | 0.00 | 0.00 | 0.00 | 75 | 827.5 |
| 20260506002006 | 52 | 355 | 1.7 | 2.6 | 0.00 | 0.00 | 0.00 | 76 | 827.5 |